#timestamp,LO_Frequency,Hit,StdDev 
1570420815.4,286046997.9,N
1570420835.2,286046996.8,N
1570420855.1,286046998.5,N
1570420856.0,286046998.5,N
1570420875.8,286046999.5,N
1570420895.7,286046996.8,N
1570420915.5,286046997.0,N
1570420935.3,286046998.0,N
1570420955.2,286046994.9,N
1570420975.0,286046993.3,Y
1570420975.9,286046993.3,P
1570420995.8,286046991.8,N
1570421015.6,286046996.2,N
1570421035.4,286046994.5,N
1570421055.3,286046993.1,N
1570421075.1,286046990.7,Y
1570421095.8,286046997.9,P
1570421115.7,286046995.1,P
1570421135.5,286046997.7,N
1570421155.4,286046998.9,N
1570421175.2,286046997.7,N
1570421195.0,286046995.9,N
1570421195.9,286046995.9,N
1570421215.8,286046990.4,Y
1570421235.6,286046994.2,P
1570421255.4,286046993.8,P
1570421275.3,286046993.8,P
1570421295.1,286046994.1,Y
1570421315.9,286047000.7,P
1570421335.7,286046998.5,N
1570421355.5,286046999.0,N
1570421375.4,286046999.5,N
1570421395.2,286046998.6,N
1570421415.1,286046998.4,N
1570421416.0,286046998.4,N
1570421435.8,286046999.2,N
1570421455.6,286046997.9,N
1570421475.5,286046995.1,Y
1570421495.3,286046995.3,P
1570421515.1,286046996.7,N
1570421535.9,286046996.7,N
1570421555.7,286046997.3,N
1570421575.6,286046997.6,N
1570421595.4,286046993.4,Y
1570421615.2,286046997.5,P
1570421635.1,286046995.8,P
1570421636.0,286046995.8,P
1570421655.8,286046996.3,Y
1570421675.6,286046998.7,P
1570421695.5,286046997.2,N
1570421715.3,286046996.0,P
1570421735.2,286046996.3,Y
1570421755.0,286046997.0,P
1570421755.9,286046997.0,P
1570421775.7,286046997.2,P
1570421795.6,286046999.1,Y
1570421815.4,286047001.9,P
1570421835.3,286047001.1,N
1570421855.1,286047000.5,N
1570421875.8,286046998.2,N
1570421895.7,286047000.0,N
1570421915.5,286047001.1,N
1570421935.4,286046998.6,N
1570421955.2,286046999.0,N
1570421975.0,286046996.8,N
1570421975.9,286046996.8,N
1570421995.8,286046996.9,N
1570422015.6,286046998.0,N
1570422035.4,286046995.7,N
1570422055.3,286046995.2,N
1570422075.1,286046995.6,N
1570422095.9,286046994.5,N
1570422115.7,286046992.2,Y
1570422135.5,286046993.4,P
1570422155.4,286046996.0,N
1570422175.2,286046996.3,N
1570422195.0,286046994.8,Y
1570422195.9,286046994.8,P
1570422215.8,286046995.2,P
1570422235.6,286046997.0,P
1570422255.5,286046997.1,Y
1570422275.3,286047001.4,P
1570422295.1,286047003.6,N
1570422315.9,286047003.4,N
1570422335.7,286047000.5,N
1570422355.5,286046997.1,N
1570422375.4,286046994.6,N
1570422395.2,286046992.5,N
1570422415.1,286046993.1,N
1570422416.0,286046993.1,N
1570422435.8,286046992.9,N
1570422455.6,286046990.5,N
1570422475.5,286046990.7,N
1570422495.3,286046990.4,N
1570422515.1,286046991.9,N
1570422535.9,286046994.5,N
1570422555.7,286046992.0,N
1570422575.6,286046991.7,N
1570422595.4,286046994.0,N
1570422615.2,286046991.8,N
1570422635.1,286046993.2,N
1570422636.0,286046993.2,N
1570422655.8,286046992.5,N
1570422675.6,286046993.1,N
1570422695.5,286046989.0,N
1570422715.3,286046989.4,N
1570422735.2,286046989.4,N
1570422755.9,286046989.2,N
1570422775.7,286046991.2,N
1570422795.6,286046991.3,N
1570422815.4,286046990.1,N
1570422835.2,286046988.6,N
1570422855.1,286046989.9,N
1570422856.0,286046989.9,Y
1570422875.8,286046997.7,P
1570422895.7,286046994.9,N
1570422915.5,286046995.0,N
1570422935.3,286046995.1,N
1570422955.2,286046997.6,N
1570422975.0,286046999.3,N
1570422975.9,286046999.3,N
1570422995.8,286046997.7,N
1570423015.6,286046997.7,N
1570423035.4,286046995.3,N
1570423055.3,286046995.3,N
1570423075.1,286046996.1,N
1570423095.8,286046991.9,Y
1570423115.7,286046995.2,P
1570423135.5,286046996.9,P
1570423155.4,286046998.6,N
1570423175.2,286047000.8,N
1570423195.0,286047001.0,N
1570423195.9,286047001.0,N
1570423215.8,286046997.8,N
1570423235.6,286046994.7,N
1570423255.4,286046990.3,Y
1570423275.3,286046992.3,P
1570423295.1,286046993.1,N
1570423315.9,286046992.4,P
1570423335.7,286046992.0,Y
1570423355.5,286047000.9,P
1570423375.4,286047000.8,N
1570423395.2,286047002.0,N
1570423415.0,286047004.9,N
1570423415.9,286047004.9,N
1570423435.8,286047003.2,N
1570423455.6,286047003.6,N
1570423475.5,286046998.6,N
1570423495.3,286046998.8,N
1570423515.1,286046998.2,N
1570423535.9,286046998.7,N
1570423555.7,286046999.0,N
1570423575.5,286046998.6,N
1570423595.4,286047000.2,N
1570423615.2,286046999.8,N
1570423635.1,286047002.2,N
1570423636.0,286047002.2,N
1570423655.8,286047000.2,N
1570423675.6,286046998.1,N
1570423695.5,286047000.7,N
1570423715.3,286047002.7,N
1570423735.1,286047001.1,N
1570423755.9,286047001.2,N
1570423775.7,286046998.9,N
1570423795.6,286046996.6,N
1570423815.4,286046997.3,N
1570423835.2,286046999.6,N
1570423855.1,286047000.3,N
1570423856.0,286047000.3,N
1570423875.8,286047001.9,N
1570423895.6,286047001.0,N
1570423915.5,286046998.3,N
1570423935.3,286046999.2,N
1570423955.2,286046996.5,N
1570423975.9,286046997.8,N
1570423995.7,286046994.9,N
1570424015.6,286046997.5,N
1570424035.4,286046997.9,N
1570424055.2,286046996.2,N
1570424075.1,286046993.4,Y
1570424076.0,286046993.4,P
1570424095.8,286046996.2,N
1570424115.7,286046997.2,N
1570424135.5,286046997.2,N
1570424155.3,286046997.3,N
1570424175.2,286046995.2,N
1570424225.0,286046995.8,E
1570424235.9,286046997.9,N
1570424255.7,286046996.5,P
1570424275.5,286046999.5,N
1570424295.4,286046998.5,N
1570424315.2,286047000.8,N
1570424335.1,286046999.7,N
1570424336.0,286046999.7,N
1570424355.8,286047001.8,N
1570424375.6,286047002.1,N
1570424395.5,286046999.5,N
